Regional Weather Roundup
Issued by NWS Bismarck, ND

Home | Current Version | Previous Version | Text Only | Print | Product List | Glossary On
Versions: 1 2 3 4 5 6 7 8 9 10 11 12 13 14 15 16 17 18 19 20 21 22 23 24 25 26 27 28 29 30 31 32 33 34 35 36 37 38 39 40 41 42 43 44 45 46 47 48 49 50
000
ASUS43 KBIS 311520
RWRBIS

NWR BROADCAST TEXT
NATIONAL WEATHER SERVICE BISMARCK ND
900 AM CST SAT JAN 31 2015

NOTE: "FAIR" INDICATES FEW OR NO CLOUDS BELOW 12,000 FEET WITH NO
SIGNIFICANT WEATHER AND/OR OBSTRUCTIONS TO VISIBILITY.


CITY           SKY/WX    TMP DP  RH WIND       PRES   REMARKS
WILLISTON      FLURRIES  14   9  80 E18       30.24R WCI  -3
MINOT          FLURRIES   7   0  73 NE15      30.34R WCI -10
MINOT AFB      CLOUDY     7   3  85 E15       30.35R BLWGSNOWWCI -11
BISMARCK       CLOUDY    15  12  88 NE15      30.27R WCI   0
DICKINSON      FOG       20  17  88 E16       30.11S VSB 3/4 WCI   6
GARRISON         N/A      9   1  70 E16G24    30.28R WCI  -8
HETTINGER ARPT FOG       21  19  92 E15       30.11R VSB 1/2 WCI   8
JAMESTOWN      MOCLDY    10   4  76 NE17      30.30R WCI  -8
BEACH          FOG       19  19 100 E22       30.09R VSB 1/2 WCI   3
CARRINGTON     FAIR       9   5  85 MISG      30.34R
CROSBY         LGT SNOW   7   5  92 E20       30.33R VSB 1   WCI -13
HARVEY         PTSUNNY    5   0  78 NE20G25   30.35R WCI -15
HAZEN          LGT SNOW  10   5  79 E15G21    30.28S WCI  -6
LINTON         CLOUDY    19  19 100 NE17      30.21R WCI   4
MANDAN         FLURRIES  14  12  92 NE16G22   30.24R WCI  -2
OAKES            N/A     10   1  67 NE20G29   30.29R WCI  -8
RUGBY          FAIR       1  -2  85 NE18      30.38R WCI -19
STANLEY        FLURRIES   7   5  92 E15G21    30.27R WCI -11
TIOGA          LGT SNOW   7   7 100 E21G26    30.28R WCI -13
WATFORD CITY   LGT SNOW  14  12  92 E18       30.20R WCI  -3
$$

CITY           SKY/WX    TMP DP  RH WIND       PRES   REMARKS
GRAND FORKS    MOCLDY     4  -4  69 N18       30.43R WCI -16
GRAND FORKS AF FLURRIES   3  -6  66 NE21G26   30.43R WCI -18
DEVILS LAKE    CLOUDY     3  -8  60 NE18      30.37R WCI -17
FARGO          CLEAR      9   0  67 N21       30.35R WCI -11
CANDO          CLOUDY     1  -4  78 NE16G22   30.40R WCI -18
CAVALIER       PTSUNNY    0  -9  65 N20       30.49R WCI -22
GWINNER        PTSUNNY   12   3  67 N21       30.30R WCI  -6
ROLLA          CLOUDY     0  -6  78 N16       30.39R WCI -21
WALHALLA         N/A     -2  -6  84 N14       30.50R WCI -21
$$

CITY           SKY/WX    TMP DP  RH WIND       PRES   REMARKS
ABERDEEN       CLOUDY    19  14  81 NE16G24   30.24R WCI   4
MOBRIDGE       CLOUDY    23  20  88 E15       30.15S WCI  10
BUFFALO          N/A     24  22  91 E13       29.96R WCI  12
RAPID CITY     CLOUDY    26  23  88 E6        30.01S WCI  19
GLASGOW        SNOW      21  18  88 E21G29    30.13R VSB 1/2 WCI   5
SIDNEY         CLOUDY    21  18  86 NE16      30.19R WCI   7
WOLF POINT     CLOUDY    22  19  89 E21G32    30.15R WCI   6
GLENDIVE       CLOUDY    23  21  93 E20       30.09R WCI   8
MILES CITY     PTCLDY    22  20  92 NE14      29.96F WCI   9
BAKER          FOG       23  21  92 E21G30    30.03R VSB 3/4 WCI   8
$$

CITY           SKY/WX    TMP DP  RH WIND       PRES   REMARKS
BILLINGS       MOCLDY    30  19  63 SW15      29.95R WCI  19
GREAT FALLS    CLOUDY    24  23  96 N12       30.11R WCI  13
REGINA         MOCLDY     1  -4  78 E15       30.40R WCI -18
ESTEVAN        LGT SNOW   5   1  85 E16       30.34R DRFTSNOWWCI -14
$$




USA.gov is the U.S. government's official web portal to all federal, state and local government web resources and services.